NW0017 Weather Reports


time (UTC)temp
C
wind
direction
speed
KPH
gust
KPH
rain 1hr
cm
rain 24hr
cm
rain mn
cm
humidity
%
barometer
mb
20260503010118 27 243 0.0 0.0 0.00 0.00 0.00 99 1009.2
20260503005901 27 248 0.0 0.0 0.00 0.00 0.00 99 1009.2
20260503005816 27 247 0.0 0.0 0.00 0.00 0.00 99 1009.2
20260503005701 27 247 0.0 0.0 0.00 0.00 0.00 99 1009.2
20260503005601 27 247 0.0 0.0 0.00 0.00 0.00 99 1009.2
20260503005501 27 247 0.0 0.0 0.00 0.00 0.00 99 1009.2
20260503005401 26 257 0.0 0.0 0.00 0.00 0.00 99 1009.2
20260503005301 26 257 0.0 0.0 0.00 0.00 0.00 99 1009.2
20260503005201 26 257 0.0 0.0 0.00 0.00 0.00 99 1009.2
20260503005101 26 257 0.0 0.0 0.00 0.00 0.00 99 1009.2
20260503005001 26 258 0.0 0.0 0.00 0.00 0.00 99 1009.2
20260503004901 26 258 0.0 0.0 0.00 0.00 0.00 99 1009.2
20260503004801 26 253 0.0 0.0 0.00 0.00 0.00 99 1009.1
20260503004701 26 247 0.0 0.0 0.00 0.00 0.00 99 1009.1
20260503004613 26 232 0.0 0.0 0.00 0.00 0.00 99 1009.1
20260503004517 26 232 0.0 0.0 0.00 0.00 0.00 99 1009.1
20260503004402 26 232 0.0 0.0 0.00 0.00 0.00 99 1009.1
20260503004301 26 232 0.0 0.0 0.00 0.00 0.00 99 1009.1
20260503004201 26 232 0.0 0.0 0.00 0.00 0.00 99 1009.1
20260503004101 26 216 0.0 0.0 0.00 0.00 0.00 99 1009.1
20260503004001 26 215 0.0 0.0 0.00 0.00 0.00 99 1009.1
20260503003903 26 215 0.0 0.0 0.00 0.00 0.00 99 1009.1
20260503003802 26 214 0.0 0.0 0.00 0.00 0.00 99 1009.0
20260503003701 26 214 0.0 0.0 0.00 0.00 0.00 99 1009.0
20260503003601 26 214 0.0 0.0 0.00 0.00 0.00 99 1009.0
20260503003501 26 214 0.0 0.0 0.00 0.00 0.00 99 1009.0
20260503003401 26 208 0.0 0.0 0.00 0.00 0.00 99 1008.9
20260503003301 26 235 0.0 0.0 0.00 0.00 0.00 99 1008.9
20260503003201 25 235 0.0 0.0 0.00 0.00 0.00 99 1008.9
20260503003101 25 236 0.0 0.0 0.00 0.00 0.00 99 1008.9
20260503003005 25 285 0.0 0.0 0.00 0.00 0.00 99 1008.9
20260503002901 25 285 0.0 0.0 0.00 0.00 0.00 99 1008.8
20260503002801 25 285 0.0 0.0 0.00 0.00 0.00 99 1008.8
20260503002701 25 285 0.0 0.0 0.00 0.00 0.00 99 1008.8
20260503002601 25 285 0.0 0.0 0.00 0.00 0.00 99 1008.8
20260503002501 25 285 0.0 0.0 0.00 0.00 0.00 99 1008.8
20260503002403 25 285 0.0 3.2 0.00 0.00 0.00 99 1008.7
20260503002301 25 285 0.0 0.0 0.00 0.00 0.00 99 1008.7
20260503002201 25 285 0.0 1.6 0.00 0.00 0.00 99 1008.7
20260503002101 25 276 1.6 1.6 0.00 0.00 0.00 99 1008.7
20260503002001 25 276 1.6 1.6 0.00 0.00 0.00 99 1008.7
20260503001901 25 276 1.6 1.6 0.00 0.00 0.00 99 1008.7
20260503001806 25 276 1.6 0.0 0.00 0.00 0.00 99 1008.7
20260503001701 25 276 0.0 0.0 0.00 0.00 0.00 99 1008.6
20260503001601 25 268 0.0 3.2 0.00 0.00 0.00 99 1008.6
20260503001502 25 268 3.2 4.8 0.00 0.00 0.00 99 1008.6
20260503001401 25 275 4.8 1.6 0.00 0.00 0.00 99 1008.6
20260503001301 25 283 3.2 3.2 0.00 0.00 0.00 99 1008.6
20260503001200 25 282 3.2 3.2 0.00 0.00 0.00 99 1008.5
20260503001101 25 280 3.2 3.2 0.00 0.00 0.00 99 1008.5
20260503001001 25 278 3.2 3.2 0.00 0.00 0.00 99 1008.5
20260503000901 25 275 3.2 3.2 0.00 0.00 0.00 99 1008.5
20260503000802 25 275 3.2 3.2 0.00 0.00 0.00 99 1008.5
20260503000700 25 275 3.2 3.2 0.00 0.00 0.00 99 1008.4
20260503000600 24 289 3.2 3.2 0.00 0.00 0.00 99 1008.4
20260503000501 24 285 3.2 3.2 0.00 0.00 0.00 99 1008.4
20260503000401 24 282 3.2 1.6 0.00 0.00 0.00 99 1008.4
20260503000300 24 280 3.2 1.6 0.00 0.00 0.00 99 1008.4
20260503000200 24 279 1.6 0.0 0.00 0.00 0.00 99 1008.3
20260503000101 24 276 0.0 0.0 0.00 0.00 0.00 99 1008.3
20260503000014 24 276 0.0 0.0 0.00 0.00 0.00 99 1008.3
20260502235900 24 276 0.0 0.0 0.00 0.00 0.00 99 1008.3
20260502235801 24 276 0.0 0.0 0.00 0.00 0.00 99 1008.3
20260502235700 24 276 0.0 0.0 0.00 0.00 0.00 99 1008.3
20260502235600 24 276 0.0 0.0 0.00 0.00 0.00 99 1008.2
20260502235501 24 276 0.0 0.0 0.00 0.00 0.00 99 1008.2
20260502235400 24 276 0.0 3.2 0.00 0.00 0.00 99 1008.2
20260502235300 24 276 1.6 1.6 0.00 0.00 0.00 99 1008.2
20260502235200 24 276 1.6 1.6 0.00 0.00 0.00 99 1008.2
20260502235100 24 276 1.6 1.6 0.00 0.00 0.00 99 1008.2
20260502235000 24 276 1.6 1.6 0.00 0.00 0.00 99 1008.2
20260502234900 24 276 1.6 3.2 0.00 0.00 0.00 99 1008.2
20260502234801 24 276 3.2 3.2 0.00 0.00 0.00 99 1008.2
20260502234701 24 276 3.2 3.2 0.00 0.00 0.00 99 1008.2
20260502234600 24 276 3.2 1.6 0.00 0.00 0.00 99 1008.2
20260502234506 24 276 1.6 3.2 0.00 0.00 0.00 99 1008.2
20260502234400 24 276 3.2 3.2 0.00 0.00 0.00 99 1008.2
20260502234300 24 276 3.2 4.8 0.00 0.00 0.00 99 1008.2
20260502234200 24 276 4.8 3.2 0.00 0.00 0.00 99 1008.2
20260502234100 24 276 3.2 3.2 0.00 0.00 0.00 99 1008.2
20260502234000 24 276 3.2 3.2 0.00 0.00 0.00 99 1008.2
20260502233900 24 276 3.2 3.2 0.00 0.00 0.00 99 1008.2
20260502233800 24 276 3.2 3.2 0.00 0.00 0.00 99 1008.2
20260502233700 24 276 3.2 3.2 0.00 0.00 0.00 99 1008.2
20260502233600 24 276 3.2 3.2 0.00 0.00 0.00 99 1008.2
20260502233500 24 276 3.2 3.2 0.00 0.00 0.00 99 1008.2
20260502233400 24 276 3.2 0.0 0.00 0.00 0.00 99 1008.2
20260502233300 24 276 3.2 4.8 0.00 0.00 0.00 99 1008.2
20260502233200 24 276 4.8 3.2 0.00 0.00 0.00 99 1008.2
20260502233102 24 272 3.2 3.2 0.00 0.00 0.00 99 1008.2
20260502233000 24 272 3.2 4.8 0.00 0.00 0.00 99 1008.2
20260502232900 24 271 4.8 3.2 0.00 0.00 0.00 99 1008.2
20260502232800 24 259 3.2 3.2 0.00 0.00 0.00 99 1008.2
20260502232700 24 251 3.2 1.6 0.00 0.00 0.00 99 1008.2
20260502232600 24 251 1.6 0.0 0.00 0.00 0.00 99 1008.2
20260502232500 23 251 0.0 0.0 0.00 0.00 0.00 99 1008.2
20260502232400 23 251 0.0 0.0 0.00 0.00 0.00 99 1008.1
20260502232300 23 251 0.0 0.0 0.00 0.00 0.00 99 1008.1
20260502232202 23 251 0.0 0.0 0.00 0.00 0.00 99 1008.1
20260502232102 23 251 0.0 0.0 0.00 0.00 0.00 99 1008.1
20260502232000 23 251 0.0 0.0 0.00 0.00 0.00 99 1008.1
20260502231900 23 251 0.0 0.0 0.00 0.00 0.00 99 1008.1
20260502231800 23 251 0.0 0.0 0.00 0.00 0.00 99 1008.1
20260502231700 23 251 0.0 0.0 0.00 0.00 0.00 99 1008.1
20260502231607 23 251 0.0 0.0 0.00 0.00 0.00 99 1008.1
20260502231500 23 251 0.0 0.0 0.00 0.00 0.00 99 1008.1
20260502231400 23 251 0.0 0.0 0.00 0.00 0.00 99 1008.1
20260502231300 23 251 0.0 0.0 0.00 0.00 0.00 99 1008.0
20260502231200 23 251 0.0 0.0 0.00 0.00 0.00 99 1008.0
20260502231102 23 251 0.0 0.0 0.00 0.00 0.00 99 1008.0
20260502231000 23 251 0.0 0.0 0.00 0.00 0.00 99 1008.0
20260502230900 23 251 0.0 0.0 0.00 0.00 0.00 99 1008.0
20260502230800 23 251 0.0 0.0 0.00 0.00 0.00 99 1008.0
20260502230700 23 251 0.0 0.0 0.00 0.00 0.00 99 1008.0
20260502230600 23 251 0.0 0.0 0.00 0.00 0.00 99 1007.9
20260502230500 23 251 0.0 0.0 0.00 0.00 0.00 99 1007.9
20260502230400 23 251 0.0 0.0 0.00 0.00 0.00 99 1007.9
20260502230300 23 251 0.0 0.0 0.00 0.00 0.00 99 1007.9
20260502230200 23 251 0.0 0.0 0.00 0.00 0.00 99 1007.9
20260502230002 23 251 0.0 0.0 0.00 0.00 0.00 99 1007.9
20260502225902 23 251 0.0 0.0 0.00 0.00 0.00 99 1007.9
20260502225800 23 251 0.0 0.0 0.00 0.00 0.00 99 1007.9
20260502225700 23 251 0.0 0.0 0.00 0.00 0.00 99 1007.9
20260502225600 23 251 0.0 0.0 0.00 0.00 0.00 99 1007.8
20260502225500 23 251 0.0 0.0 0.00 0.00 0.00 99 1007.8
20260502225400 23 251 0.0 1.6 0.00 0.00 0.00 99 1007.8
20260502225300 23 251 0.0 0.0 0.00 0.00 0.00 99 1007.8
20260502225200 23 251 0.0 0.0 0.00 0.00 0.00 99 1007.8
20260502225100 23 251 0.0 0.0 0.00 0.00 0.00 99 1007.8
20260502225000 23 251 0.0 0.0 0.00 0.00 0.00 99 1007.8
20260502224900 23 251 0.0 0.0 0.00 0.00 0.00 99 1007.8
20260502224800 23 251 0.0 0.0 0.00 0.00 0.00 99 1007.8
20260502224700 23 251 0.0 0.0 0.00 0.00 0.00 99 1007.8
20260502224602 23 251 0.0 0.0 0.00 0.00 0.00 99 1007.8
20260502224500 23 251 0.0 0.0 0.00 0.00 0.00 99 1007.8
20260502224400 23 251 0.0 0.0 0.00 0.00 0.00 99 1007.8
20260502224300 23 251 0.0 0.0 0.00 0.00 0.00 99 1007.8
20260502224200 23 251 0.0 1.6 0.00 0.00 0.00 99 1007.8
20260502224100 23 251 1.6 3.2 0.00 0.00 0.00 99 1007.8
20260502224000 23 251 3.2 1.6 0.00 0.00 0.00 99 1007.8
20260502223900 23 251 1.6 1.6 0.00 0.00 0.00 99 1007.8
20260502223800 23 251 1.6 1.6 0.00 0.00 0.00 99 1007.8
20260502223700 23 251 1.6 3.2 0.00 0.00 0.00 99 1007.8
20260502223600 23 251 3.2 0.0 0.00 0.00 0.00 99 1007.8
20260502223500 23 251 0.0 0.0 0.00 0.00 0.00 99 1007.8
20260502223258 23 256 4.8 3.2 0.00 0.00 0.00 99 1007.6
20260502223158 23 249 3.2 4.8 0.00 0.00 0.00 99 1007.6
20260502223058 23 249 4.8 4.8 0.00 0.00 0.00 99 1007.6
20260502222958 23 249 4.8 4.8 0.00 0.00 0.00 99 1007.6
20260502222900 23 249 4.8 4.8 0.00 0.00 0.00 99 1007.5
20260502222758 23 254 3.2 4.8 0.00 0.00 0.00 99 1007.5
20260502222658 23 255 4.8 4.8 0.00 0.00 0.00 99 1007.5
20260502222558 23 254 4.8 4.8 0.00 0.00 0.00 99 1007.5
20260502222458 23 255 4.8 4.8 0.00 0.00 0.00 99 1007.5
20260502222403 23 255 4.8 3.2 0.00 0.00 0.00 99 1007.4
20260502222305 23 255 3.2 3.2 0.00 0.00 0.00 99 1007.4
20260502222158 23 255 3.2 3.2 0.00 0.00 0.00 99 1007.4
20260502222058 23 255 3.2 3.2 0.00 0.00 0.00 99 1007.4
20260502222000 23 255 3.2 3.2 0.00 0.00 0.00 99 1007.4
20260502221858 23 267 3.2 4.8 0.00 0.00 0.00 99 1007.3
20260502221758 23 267 4.8 4.8 0.00 0.00 0.00 99 1007.3
20260502221658 23 260 4.8 4.8 0.00 0.00 0.00 99 1007.3
20260502221604 23 260 4.8 4.8 0.00 0.00 0.00 99 1007.3
20260502221458 23 278 4.8 6.4 0.00 0.00 0.00 99 1007.3
20260502221358 23 258 6.4 6.4 0.00 0.00 0.00 99 1007.2
20260502221258 23 263 6.4 4.8 0.00 0.00 0.00 99 1007.2
20260502221158 23 262 4.8 4.8 0.00 0.00 0.00 99 1007.2
20260502221058 23 268 4.8 4.8 0.00 0.00 0.00 99 1007.2
20260502220958 23 261 4.8 4.8 0.00 0.00 0.00 99 1007.2
20260502220858 23 260 4.8 6.4 0.00 0.00 0.00 99 1007.1
20260502220758 23 262 3.2 4.8 0.00 0.00 0.00 99 1007.1
20260502220658 23 261 4.8 4.8 0.00 0.00 0.00 99 1007.1
20260502220558 23 255 4.8 6.4 0.00 0.00 0.00 99 1007.1
20260502220458 23 258 6.4 6.4 0.00 0.00 0.00 99 1007.0
20260502220358 23 255 6.4 6.4 0.00 0.00 0.00 99 1007.0
20260502220258 24 256 6.4 4.8 0.00 0.00 0.00 99 1007.0
20260502220200 24 260 4.8 6.4 0.00 0.00 0.00 99 1007.0
20260502220104 24 252 6.4 4.8 0.00 0.00 0.00 99 1007.0
20260502215958 24 254 4.8 6.4 0.00 0.00 0.00 99 1006.9
20260502215900 24 259 6.4 6.4 0.00 0.00 0.00 99 1006.9
20260502215758 24 276 8.0 6.4 0.00 0.00 0.00 99 1006.9
20260502215658 24 264 6.4 6.4 0.00 0.00 0.00 99 1006.9
20260502215558 24 255 6.4 6.4 0.00 0.00 0.00 99 1006.9
20260502215458 24 261 6.4 6.4 0.00 0.00 0.00 99 1006.8
20260502215358 24 264 6.4 8.0 0.00 0.00 0.00 99 1006.8
20260502215258 24 272 8.0 8.0 0.00 0.00 0.00 99 1006.8
20260502215158 24 272 8.0 8.0 0.00 0.00 0.00 99 1006.8
20260502215058 24 268 8.0 6.4 0.00 0.00 0.00 99 1006.8
20260502214958 24 259 6.4 6.4 0.00 0.00 0.00 99 1006.8
20260502214900 24 260 6.4 4.8 0.00 0.00 0.00 99 1006.8
20260502214758 24 265 4.8 4.8 0.00 0.00 0.00 99 1006.8
20260502214658 24 269 4.8 4.8 0.00 0.00 0.00 99 1006.8
20260502214604 24 269 4.8 6.4 0.00 0.00 0.00 99 1006.8
20260502214458 24 269 6.4 8.0 0.00 0.00 0.00 99 1006.8
20260502214358 24 275 8.0 4.8 0.00 0.00 0.00 99 1006.8
20260502214258 24 275 4.8 4.8 0.00 0.00 0.00 99 1006.8
20260502214158 24 275 4.8 4.8 0.00 0.00 0.00 99 1006.8
20260502214104 24 275 4.8 4.8 0.00 0.00 0.00 99 1006.8
20260502213958 24 275 4.8 4.8 0.00 0.00 0.00 99 1006.8
20260502213858 24 291 4.8 3.2 0.00 0.00 0.00 99 1006.8
20260502213800 24 291 6.4 6.4 0.00 0.00 0.00 99 1006.8
20260502213658 24 291 6.4 6.4 0.00 0.00 0.00 99 1006.8
20260502213558 24 281 6.4 4.8 0.00 0.00 0.00 99 1006.8
20260502213458 24 284 4.8 3.2 0.00 0.00 0.00 99 1006.8
20260502213358 24 294 3.2 1.6 0.00 0.00 0.00 99 1006.8
20260502213258 24 295 1.6 0.0 0.00 0.00 0.00 99 1006.8
20260502213201 24 295 0.0 1.6 0.00 0.00 0.00 99 1006.8
20260502213103 24 295 1.6 1.6 0.00 0.00 0.00 99 1006.7
20260502213050 24 295 1.6 1.6 0.00 0.00 0.00 99 1006.7
20260502212908 24 295 1.6 3.2 0.00 0.00 0.00 99 1006.7
20260502212758 24 295 1.6 4.8 0.00 0.00 0.00 99 1006.7
20260502212708 24 295 3.2 4.8 0.00 0.00 0.00 99 1006.7
20260502211957 24 287 3.2 3.2 0.00 0.00 0.00 99 1006.6
20260502211857 24 287 3.2 3.2 0.00 0.00 0.00 99 1006.6
20260502211757 24 288 3.2 1.6 0.00 0.00 0.00 99 1006.6
20260502211657 24 288 1.6 1.6 0.00 0.00 0.00 99 1006.6
20260502211558 24 288 1.6 1.6 0.00 0.00 0.00 99 1006.6
20260502211458 24 288 1.6 3.2 0.00 0.00 0.00 99 1006.6
20260502211357 24 288 3.2 3.2 0.00 0.00 0.00 99 1006.6
20260502211257 24 288 3.2 3.2 0.00 0.00 0.00 99 1006.6
20260502211157 24 288 3.2 3.2 0.00 0.00 0.00 99 1006.6
20260502211059 24 288 3.2 3.2 0.00 0.00 0.00 99 1006.5
20260502210959 24 282 3.2 3.2 0.00 0.00 0.00 99 1006.5
20260502210858 24 277 3.2 3.2 0.00 0.00 0.00 99 1006.5
20260502210757 24 277 3.2 4.8 0.00 0.00 0.00 99 1006.5
20260502210659 24 276 4.8 3.2 0.00 0.00 0.00 99 1006.5
20260502210558 24 276 3.2 3.2 0.00 0.00 0.00 99 1006.5
20260502210457 24 276 3.2 3.2 0.00 0.00 0.00 99 1006.5
20260502210357 24 276 3.2 4.8 0.00 0.00 0.00 99 1006.5
20260502210257 24 276 4.8 4.8 0.00 0.00 0.00 99 1006.5
20260502210157 25 276 4.8 4.8 0.00 0.00 0.00 99 1006.5
20260502210057 25 276 4.8 4.8 0.00 0.00 0.00 99 1006.4
20260502205957 25 276 4.8 3.2 0.00 0.00 0.00 99 1006.4
20260502205857 25 276 3.2 1.6 0.00 0.00 0.00 99 1006.4
20260502205757 25 277 3.2 1.6 0.00 0.00 0.00 99 1006.4
20260502205657 25 277 1.6 1.6 0.00 0.00 0.00 99 1006.4
20260502205557 25 277 1.6 0.0 0.00 0.00 0.00 99 1006.4
20260502205457 25 277 0.0 1.6 0.00 0.00 0.00 99 1006.4
20260502205357 25 277 1.6 1.6 0.00 0.00 0.00 99 1006.4
20260502205257 25 277 1.6 1.6 0.00 0.00 0.00 99 1006.4
20260502205157 25 277 1.6 3.2 0.00 0.00 0.00 99 1006.4
20260502205057 25 277 3.2 3.2 0.00 0.00 0.00 99 1006.5
20260502204959 25 277 3.2 1.6 0.00 0.00 0.00 99 1006.5
20260502204857 25 277 1.6 0.0 0.00 0.00 0.00 99 1006.5
20260502204757 25 277 0.0 0.0 0.00 0.00 0.00 99 1006.5
20260502204657 25 277 0.0 0.0 0.00 0.00 0.00 99 1006.5
20260502204603 25 277 0.0 0.0 0.00 0.00 0.00 99 1006.5
20260502204457 25 277 0.0 0.0 0.00 0.00 0.00 99 1006.5
20260502204357 25 277 0.0 0.0 0.00 0.00 0.00 99 1006.5
20260502204257 25 277 0.0 0.0 0.00 0.00 0.00 99 1006.5
20260502204157 25 277 0.0 0.0 0.00 0.00 0.00 99 1006.5
20260502204057 25 277 0.0 0.0 0.00 0.00 0.00 99 1006.5
20260502203957 25 277 0.0 0.0 0.00 0.00 0.00 99 1006.5
20260502203857 25 277 0.0 0.0 0.00 0.00 0.00 99 1006.5
20260502203801 24 277 0.0 0.0 0.00 0.00 0.00 99 1006.5
20260502203657 24 277 0.0 0.0 0.00 0.00 0.00 99 1006.4
20260502203557 24 277 0.0 0.0 0.00 0.00 0.00 99 1006.4
20260502203457 24 277 0.0 0.0 0.00 0.00 0.00 99 1006.4
20260502203357 24 277 0.0 0.0 0.00 0.00 0.00 99 1006.4
20260502203257 24 277 0.0 0.0 0.00 0.00 0.00 99 1006.4
20260502203157 24 277 0.0 0.0 0.00 0.00 0.00 99 1006.5
20260502203103 24 277 0.0 0.0 0.00 0.00 0.00 99 1006.5
20260502202957 24 277 0.0 0.0 0.00 0.00 0.00 99 1006.5
20260502202857 24 277 0.0 0.0 0.00 0.00 0.00 99 1006.5
20260502202757 24 277 0.0 0.0 0.00 0.00 0.00 99 1006.5
20260502202659 24 277 0.0 0.0 0.00 0.00 0.00 99 1006.5
20260502202557 24 277 0.0 0.0 0.00 0.00 0.00 99 1006.5
20260502202457 24 277 0.0 0.0 0.00 0.00 0.00 99 1006.6
20260502202357 24 277 0.0 0.0 0.00 0.00 0.00 99 1006.6
20260502202257 24 277 0.0 0.0 0.00 0.00 0.00 99 1006.6
20260502202157 24 277 0.0 0.0 0.00 0.00 0.00 99 1006.6
20260502202057 24 277 0.0 0.0 0.00 0.00 0.00 99 1006.6
20260502201957 24 275 0.0 0.0 0.00 0.00 0.00 99 1006.7
20260502201857 24 275 0.0 0.0 0.00 0.00 0.00 99 1006.7
20260502201757 25 275 0.0 0.0 0.00 0.00 0.00 99 1006.7
20260502201657 25 275 0.0 0.0 0.00 0.00 0.00 99 1006.7
20260502201603 25 275 0.0 0.0 0.00 0.00 0.00 99 1006.7
20260502201457 25 275 0.0 0.0 0.00 0.00 0.00 99 1006.7
20260502201357 25 275 0.0 0.0 0.00 0.00 0.00 99 1006.7
20260502201257 25 275 0.0 0.0 0.00 0.00 0.00 99 1006.8
20260502201157 25 275 0.0 0.0 0.00 0.00 0.00 99 1006.8
20260502201057 25 275 0.0 0.0 0.00 0.00 0.00 99 1006.8
20260502200959 25 275 0.0 0.0 0.00 0.00 0.00 99 1006.8
20260502200859 25 275 0.0 0.0 0.00 0.00 0.00 99 1006.8
20260502200759 25 275 0.0 0.0 0.00 0.00 0.00 99 1006.8
20260502200657 25 275 0.0 0.0 0.00 0.00 0.00 99 1006.8
20260502200557 25 275 0.0 0.0 0.00 0.00 0.00 99 1006.8
20260502200457 25 275 0.0 0.0 0.00 0.00 0.00 99 1006.8
20260502200357 25 275 0.0 0.0 0.00 0.00 0.00 99 1006.9
20260502200257 25 275 0.0 0.0 0.00 0.00 0.00 99 1006.9
20260502200159 25 275 0.0 0.0 0.00 0.00 0.00 99 1006.9
20260502200101 25 275 0.0 0.0 0.00 0.00 0.00 99 1006.9
20260502195957 25 275 0.0 0.0 0.00 0.00 0.00 99 1006.9
20260502195859 25 275 0.0 1.6 0.00 0.00 0.00 99 1006.9
20260502195757 25 275 0.0 0.0 0.00 0.00 0.00 99 1006.9
20260502195657 25 275 0.0 0.0 0.00 0.00 0.00 99 1007.0
20260502195557 25 275 0.0 0.0 0.00 0.00 0.00 99 1007.0
20260502195457 25 275 0.0 1.6 0.00 0.00 0.00 99 1007.0
20260502195357 25 275 1.6 1.6 0.00 0.00 0.00 99 1007.0
20260502195257 25 275 1.6 1.6 0.00 0.00 0.00 99 1007.0
20260502195157 25 275 1.6 3.2 0.00 0.00 0.00 99 1007.0
20260502195057 25 275 3.2 1.6 0.00 0.00 0.00 99 1007.1
20260502194957 25 275 1.6 1.6 0.00 0.00 0.00 99 1007.1
20260502194857 25 275 1.6 1.6 0.00 0.00 0.00 99 1007.1
20260502194757 25 275 1.6 1.6 0.00 0.00 0.00 99 1007.1
20260502194657 25 275 1.6 1.6 0.00 0.00 0.00 99 1007.1
20260502194557 25 275 1.6 1.6 0.00 0.00 0.00 99 1007.1
20260502194457 25 275 1.6 1.6 0.00 0.00 0.00 99 1007.1
20260502194357 25 275 1.6 1.6 0.00 0.00 0.00 99 1007.1
20260502194257 25 275 1.6 1.6 0.00 0.00 0.00 99 1007.1
20260502194157 25 275 1.6 3.2 0.00 0.00 0.00 99 1007.1
20260502194057 25 275 3.2 3.2 0.00 0.00 0.00 99 1007.1
20260502193957 25 275 3.2 3.2 0.00 0.00 0.00 99 1007.1
20260502193857 25 275 3.2 0.0 0.00 0.00 0.00 99 1007.2
20260502193757 25 275 1.6 0.0 0.00 0.00 0.00 99 1007.2
20260502193657 25 275 0.0 0.0 0.00 0.00 0.00 99 1007.2
20260502193557 25 275 0.0 0.0 0.00 0.00 0.00 99 1007.2
20260502193457 25 275 0.0 0.0 0.00 0.00 0.00 99 1007.2
20260502193357 25 275 0.0 0.0 0.00 0.00 0.00 99 1007.2
20260502193257 25 275 0.0 0.0 0.00 0.00 0.00 99 1007.3
20260502193157 25 275 0.0 0.0 0.00 0.00 0.00 99 1007.3
20260502193059 25 275 0.0 0.0 0.00 0.00 0.00 99 1007.3
20260502192957 25 275 0.0 0.0 0.00 0.00 0.00 99 1007.3
20260502192857 25 275 0.0 1.6 0.00 0.00 0.00 99 1007.3
20260502192757 25 275 0.0 0.0 0.00 0.00 0.00 99 1007.4
20260502192657 25 275 0.0 0.0 0.00 0.00 0.00 99 1007.4
20260502192557 25 275 0.0 0.0 0.00 0.00 0.00 99 1007.4
20260502192457 25 275 0.0 1.6 0.00 0.00 0.00 99 1007.4
20260502192357 25 275 1.6 1.6 0.00 0.00 0.00 99 1007.4
20260502192257 25 275 1.6 1.6 0.00 0.00 0.00 99 1007.4
20260502192157 25 275 1.6 1.6 0.00 0.00 0.00 99 1007.5
20260502192101 25 275 1.6 3.2 0.00 0.00 0.00 99 1007.5
20260502191957 25 275 3.2 1.6 0.00 0.00 0.00 99 1007.5
20260502191856 25 275 1.6 3.2 0.00 0.00 0.00 99 1007.5
20260502191757 25 275 1.6 3.2 0.00 0.00 0.00 99 1007.5
20260502191657 25 275 3.2 3.2 0.00 0.00 0.00 99 1007.6
20260502191601 25 275 3.2 3.2 0.00 0.00 0.00 99 1007.6
20260502191456 25 275 3.2 3.2 0.00 0.00 0.00 99 1007.6
20260502191356 25 275 3.2 3.2 0.00 0.00 0.00 99 1007.6
20260502191256 25 275 3.2 3.2 0.00 0.00 0.00 99 1007.6
20260502191157 25 275 3.2 4.8 0.00 0.00 0.00 99 1007.7
20260502191056 25 272 4.8 3.2 0.00 0.00 0.00 99 1007.7
20260502190957 25 264 3.2 3.2 0.00 0.00 0.00 99 1007.7
20260502190856 25 264 3.2 3.2 0.00 0.00 0.00 99 1007.7
20260502190757 25 263 3.2 3.2 0.00 0.00 0.00 99 1007.7
20260502190658 25 263 3.2 3.2 0.00 0.00 0.00 99 1007.8
20260502190557 25 263 3.2 3.2 0.00 0.00 0.00 99 1007.8
20260502190456 25 258 3.2 3.2 0.00 0.00 0.00 99 1007.8
20260502190356 25 253 3.2 3.2 0.00 0.00 0.00 99 1007.8
20260502190257 25 231 3.2 3.2 0.00 0.00 0.00 99 1007.8
20260502190157 25 231 3.2 1.6 0.00 0.00 0.00 99 1007.8
20260502190103 25 231 1.6 1.6 0.00 0.00 0.00 99 1007.8
20260502185956 25 231 1.6 3.2 0.00 0.00 0.00 99 1007.9
20260502185857 25 234 3.2 3.2 0.00 0.00 0.00 99 1007.9
20260502185756 25 234 1.6 3.2 0.00 0.00 0.00 99 1007.9
20260502185656 25 234 3.2 3.2 0.00 0.00 0.00 99 1007.9
20260502185556 25 234 3.2 3.2 0.00 0.00 0.00 99 1007.9
20260502185459 25 234 3.2 3.2 0.00 0.00 0.00 99 1007.9
20260502185356 25 234 3.2 3.2 0.00 0.00 0.00 99 1007.9
20260502185257 25 234 3.2 3.2 0.00 0.00 0.00 99 1007.9
20260502185156 25 234 3.2 3.2 0.00 0.00 0.00 99 1008.0
20260502185057 25 234 3.2 3.2 0.00 0.00 0.00 99 1008.0
20260502184956 25 234 3.2 4.8 0.00 0.00 0.00 99 1008.0
20260502184856 25 234 4.8 3.2 0.00 0.00 0.00 99 1008.0
20260502184756 25 234 3.2 4.8 0.00 0.00 0.00 99 1008.0
20260502184656 25 234 4.8 3.2 0.00 0.00 0.00 99 1008.0
20260502184556 25 239 3.2 3.2 0.00 0.00 0.00 99 1008.0
20260502184456 25 244 3.2 3.2 0.00 0.00 0.00 99 1008.0
20260502184356 25 265 3.2 3.2 0.00 0.00 0.00 99 1008.0
20260502184256 25 265 3.2 3.2 0.00 0.00 0.00 99 1008.0
20260502184158 25 265 3.2 3.2 0.00 0.00 0.00 99 1008.0
20260502184056 25 265 3.2 3.2 0.00 0.00 0.00 99 1008.0
20260502184002 25 265 3.2 3.2 0.00 0.00 0.00 99 1008.0
20260502183856 25 283 3.2 1.6 0.00 0.00 0.00 99 1008.0
20260502183756 25 283 3.2 3.2 0.00 0.00 0.00 99 1008.1
20260502183656 25 283 3.2 3.2 0.00 0.00 0.00 99 1008.1
20260502183556 25 284 3.2 3.2 0.00 0.00 0.00 99 1008.1
20260502183456 25 279 3.2 3.2 0.00 0.00 0.00 99 1008.1
20260502183400 25 258 3.2 3.2 0.00 0.00 0.00 99 1008.1
20260502183256 25 258 3.2 0.0 0.00 0.00 0.00 99 1008.1
20260502183156 25 258 0.0 0.0 0.00 0.00 0.00 99 1008.1
20260502183102 25 258 0.0 0.0 0.00 0.00 0.00 99 1008.1
20260502182956 25 258 0.0 0.0 0.00 0.00 0.00 99 1008.1
20260502182856 25 258 0.0 3.2 0.00 0.00 0.00 99 1008.1
20260502182756 25 258 0.0 0.0 0.00 0.00 0.00 99 1008.1
20260502182656 25 258 0.0 1.6 0.00 0.00 0.00 99 1008.1
20260502182556 25 258 1.6 3.2 0.00 0.00 0.00 99 1008.1
20260502182458 25 258 3.2 3.2 0.00 0.00 0.00 99 1008.1
20260502182356 25 258 3.2 3.2 0.00 0.00 0.00 99 1008.1
20260502182256 25 258 3.2 3.2 0.00 0.00 0.00 99 1008.1
20260502182158 25 258 3.2 3.2 0.00 0.00 0.00 99 1008.2
20260502182056 25 257 3.2 3.2 0.00 0.00 0.00 99 1008.2
20260502181958 25 257 3.2 3.2 0.00 0.00 0.00 99 1008.2
20260502181856 25 257 3.2 4.8 0.00 0.00 0.00 99 1008.2
20260502181756 25 257 3.2 3.2 0.00 0.00 0.00 99 1008.2
20260502181656 25 270 3.2 3.2 0.00 0.00 0.00 99 1008.2
20260502181602 25 270 3.2 3.2 0.00 0.00 0.00 99 1008.3
20260502181456 25 270 3.2 3.2 0.00 0.00 0.00 99 1008.3
20260502181356 25 273 3.2 3.2 0.00 0.00 0.00 99 1008.3
20260502181256 25 273 3.2 3.2 0.00 0.00 0.00 99 1008.3
20260502181157 25 275 3.2 3.2 0.00 0.00 0.00 99 1008.4
20260502181057 25 281 3.2 3.2 0.00 0.00 0.00 99 1008.4
20260502180956 25 288 3.2 3.2 0.00 0.00 0.00 99 1008.4
20260502180856 25 288 3.2 4.8 0.00 0.00 0.00 99 1008.4
20260502180756 25 288 4.8 6.4 0.00 0.00 0.00 99 1008.4
20260502180656 25 292 6.4 4.8 0.00 0.00 0.00 99 1008.4
20260502180556 25 297 4.8 4.8 0.00 0.00 0.00 99 1008.5
20260502180456 25 297 4.8 3.2 0.00 0.00 0.00 99 1008.5
20260502180356 25 286 3.2 4.8 0.00 0.00 0.00 99 1008.5
20260502180256 25 284 4.8 6.4 0.00 0.00 0.00 99 1008.5
20260502180158 25 282 6.4 6.4 0.00 0.00 0.00 99 1008.5
20260502170456 25 254 6.4 6.4 0.00 0.00 0.00 99 1009.2
20260502170356 25 251 6.4 6.4 0.00 0.00 0.00 99 1009.2
20260502170256 25 263 6.4 6.4 0.00 0.00 0.00 99 1009.2
20260502170156 25 265 6.4 8.0 0.00 0.00 0.00 99 1009.2
20260502164255 25 242 6.4 6.4 0.00 0.00 0.00 99 1009.3
20260502164156 25 236 6.4 6.4 0.00 0.00 0.00 99 1009.3
20260502164055 25 256 6.4 6.4 0.00 0.00 0.00 99 1009.3
20260502163955 25 259 6.4 4.8 0.00 0.00 0.00 99 1009.3
20260502163855 25 252 4.8 8.0 0.00 0.00 0.00 99 1009.3
20260502163755 25 248 4.8 4.8 0.00 0.00 0.00 99 1009.3
20260502163655 25 244 4.8 6.4 0.00 0.00 0.00 99 1009.3
20260502163555 25 241 6.4 6.4 0.00 0.00 0.00 99 1009.3
20260502163455 25 237 6.4 6.4 0.00 0.00 0.00 99 1009.3
20260502163358 25 247 6.4 6.4 0.00 0.00 0.00 99 1009.3
20260502163309 25 245 6.4 6.4 0.00 0.00 0.00 99 1009.3
20260502163157 25 253 6.4 6.4 0.00 0.00 0.00 99 1009.3
20260502163055 25 255 6.4 8.0 0.00 0.00 0.00 99 1009.3
20260502162955 25 244 8.0 8.0 0.00 0.00 0.00 99 1009.3
20260502162855 25 249 8.0 6.4 0.00 0.00 0.00 99 1009.3
20260502162755 25 259 8.0 8.0 0.00 0.00 0.00 99 1009.3
20260502162655 25 247 8.0 6.4 0.00 0.00 0.00 99 1009.3
20260502162555 25 258 6.4 8.0 0.00 0.00 0.00 99 1009.3
20260502162455 25 272 8.0 9.7 0.00 0.00 0.00 99 1009.3
20260502162355 25 277 9.7 8.0 0.00 0.00 0.00 99 1009.3
20260502162255 25 280 8.0 6.4 0.00 0.00 0.00 99 1009.3
20260502162157 25 287 6.4 8.0 0.00 0.00 0.00 99 1009.3
20260502162055 25 264 8.0 6.4 0.00 0.00 0.00 99 1009.3
20260502161955 25 285 6.4 6.4 0.00 0.00 0.00 99 1009.3
20260502161855 25 264 6.4 6.4 0.00 0.00 0.00 99 1009.3
20260502161755 25 272 8.0 8.0 0.00 0.00 0.00 99 1009.3
20260502161655 25 266 8.0 6.4 0.00 0.00 0.00 99 1009.3
20260502161605 25 271 6.4 6.4 0.00 0.00 0.00 99 1009.3
20260502161455 25 254 6.4 6.4 0.00 0.00 0.00 99 1009.3
20260502161355 25 277 6.4 6.4 0.00 0.00 0.00 99 1009.3
20260502161255 25 275 6.4 4.8 0.00 0.00 0.00 99 1009.3
20260502161155 25 263 4.8 6.4 0.00 0.00 0.00 99 1009.3
20260502161055 25 267 6.4 6.4 0.00 0.00 0.00 99 1009.3
20260502160955 25 263 6.4 8.0 0.00 0.00 0.00 99 1009.3
20260502160855 25 255 8.0 6.4 0.00 0.00 0.00 99 1009.3
20260502160757 25 272 6.4 6.4 0.00 0.00 0.00 99 1009.3
20260502160655 25 267 6.4 8.0 0.00 0.00 0.00 99 1009.3
20260502160555 25 253 8.0 8.0 0.00 0.00 0.00 99 1009.3
20260502160455 25 262 8.0 8.0 0.00 0.00 0.00 99 1009.3
20260502160357 25 266 8.0 6.4 0.00 0.00 0.00 99 1009.3
20260502160255 25 284 6.4 8.0 0.00 0.00 0.00 99 1009.3
20260502160155 25 284 8.0 6.4 0.00 0.00 0.00 99 1009.3
20260502160114 25 287 6.4 6.4 0.00 0.00 0.00 99 1009.3
20260502152306 26 278 8.0 9.7 0.00 0.00 0.00 99 1009.0
20260502152155 26 273 9.7 9.7 0.00 0.00 0.00 99 1009.0
20260502152113 26 266 9.7 8.0 0.00 0.00 0.00 99 1009.0
20260502152001 26 270 8.0 9.7 0.00 0.00 0.00 99 1009.0
20260502151755 26 255 9.7 9.7 0.00 0.00 0.00 99 1009.0
20260502151705 26 259 9.7 8.0 0.00 0.00 0.00 99 1008.9
20260502151617 26 268 8.0 6.4 0.00 0.00 0.00 99 1008.9
20260502151456 26 256 6.4 8.0 0.00 0.00 0.00 99 1008.9
20260502151355 26 265 8.0 6.4 0.00 0.00 0.00 99 1008.9
20260502151259 26 269 6.4 6.4 0.00 0.00 0.00 99 1008.9
20260502151157 26 266 6.4 6.4 0.00 0.00 0.00 99 1008.9
20260502151055 26 267 6.4 6.4 0.00 0.00 0.00 99 1008.9
20260502150955 26 272 6.4 6.4 0.00 0.00 0.00 99 1008.8
20260502150855 26 273 6.4 6.4 0.00 0.00 0.00 99 1008.8
20260502150755 26 283 4.8 4.8 0.00 0.00 0.00 99 1008.8
20260502150655 26 270 4.8 4.8 0.00 0.00 0.00 99 1008.8
20260502150555 26 270 4.8 4.8 0.00 0.00 0.00 99 1008.9
20260502150455 26 278 4.8 4.8 0.00 0.00 0.00 99 1008.9
20260502150355 26 262 4.8 6.4 0.00 0.00 0.00 99 1008.9
20260502150257 26 257 6.4 6.4 0.00 0.00 0.00 99 1008.9
20260502150155 26 259 6.4 6.4 0.00 0.00 0.00 99 1008.9
20260502130654 28 253 6.4 6.4 0.00 0.00 0.00 98 1007.9
20260502130554 28 252 6.4 6.4 0.00 0.00 0.00 98 1007.9
20260502130454 28 252 6.4 8.0 0.00 0.00 0.00 98 1007.9
20260502130354 28 248 8.0 8.0 0.00 0.00 0.00 98 1007.9
20260502130254 28 240 8.0 8.0 0.00 0.00 0.00 97 1007.9
20260502130156 28 240 8.0 8.0 0.00 0.00 0.00 97 1007.9
20260502123753 28 116 0.0 0.0 0.00 0.00 0.00 97 1007.3
20260502123655 28 116 0.0 0.0 0.00 0.00 0.00 96 1007.3
20260502123553 28 116 0.0 0.0 0.00 0.00 0.00 96 1007.2
20260502123453 28 116 0.0 0.0 0.00 0.00 0.00 96 1007.2
20260502123353 28 116 0.0 0.0 0.00 0.00 0.00 96 1007.2
20260502123253 28 116 0.0 0.0 0.00 0.00 0.00 95 1007.2
20260502123153 28 116 0.0 0.0 0.00 0.00 0.00 95 1007.2
20260502123101 28 117 0.0 0.0 0.00 0.00 0.00 95 1007.2
20260502122953 28 117 0.0 0.0 0.00 0.00 0.00 95 1007.2
20260502122857 28 117 0.0 0.0 0.00 0.00 0.00 95 1007.2
20260502122753 28 117 0.0 0.0 0.00 0.00 0.00 95 1007.1
20260502122653 28 117 0.0 0.0 0.00 0.00 0.00 95 1007.1
20260502122554 28 117 0.0 0.0 0.00 0.00 0.00 95 1007.1
20260502122509 28 117 0.0 0.0 0.00 0.00 0.00 95 1007.1
20260502122353 28 117 0.0 0.0 0.00 0.00 0.00 95 1007.1
20260502122253 28 117 0.0 0.0 0.00 0.00 0.00 95 1007.1
20260502122153 28 117 0.0 0.0 0.00 0.00 0.00 95 1007.1
20260502122053 28 117 0.0 0.0 0.00 0.00 0.00 95 1007.0
20260502121953 28 117 0.0 0.0 0.00 0.00 0.00 95 1007.0
20260502121853 28 117 0.0 0.0 0.00 0.00 0.00 95 1007.0
20260502121753 28 117 0.0 0.0 0.00 0.00 0.00 95 1007.0
20260502121653 28 117 0.0 0.0 0.00 0.00 0.00 95 1006.9
20260502121608 28 117 0.0 0.0 0.00 0.00 0.00 95 1006.9
20260502121453 28 100 0.0 0.0 0.00 0.00 0.00 95 1006.9
20260502121353 28 91 0.0 0.0 0.00 0.00 0.00 95 1006.8
20260502121253 28 91 0.0 0.0 0.00 0.00 0.00 95 1006.8
20260502121159 28 91 0.0 0.0 0.00 0.00 0.00 95 1006.8
20260502121053 28 91 0.0 0.0 0.00 0.00 0.00 95 1006.7
20260502120953 28 91 0.0 0.0 0.00 0.00 0.00 95 1006.7
20260502120853 28 91 0.0 1.6 0.00 0.00 0.00 95 1006.6
20260502120753 28 91 0.0 0.0 0.00 0.00 0.00 95 1006.6
20260502120653 28 91 0.0 0.0 0.00 0.00 0.00 95 1006.6
20260502120553 28 91 0.0 0.0 0.00 0.00 0.00 95 1006.5
20260502120453 28 91 0.0 0.0 0.00 0.00 0.00 95 1006.5
20260502120353 28 91 0.0 0.0 0.00 0.00 0.00 95 1006.4
20260502120255 28 90 0.0 0.0 0.00 0.00 0.00 95 1006.4
20260502120153 28 90 0.0 0.0 0.00 0.00 0.00 95 1006.4
20260502115856 28 90 1.6 3.2 0.00 0.00 0.00 94 1006.3
20260502115753 28 90 1.6 1.6 0.00 0.00 0.00 94 1006.2
20260502115653 28 90 1.6 1.6 0.00 0.00 0.00 94 1006.2
20260502115553 28 90 1.6 3.2 0.00 0.00 0.00 94 1006.2
20260502115453 28 90 3.2 3.2 0.00 0.00 0.00 94 1006.1
20260502115353 28 90 3.2 3.2 0.00 0.00 0.00 94 1006.1
20260502115253 28 98 3.2 3.2 0.00 0.00 0.00 94 1006.1
20260502115153 28 97 3.2 3.2 0.00 0.00 0.00 94 1006.0
20260502115053 28 89 3.2 3.2 0.00 0.00 0.00 94 1006.0
20260502114953 28 81 3.2 3.2 0.00 0.00 0.00 94 1006.0
20260502114853 28 93 3.2 6.4 0.00 0.00 0.00 93 1006.0
20260502114753 28 88 3.2 4.8 0.00 0.00 0.00 93 1006.0
20260502114653 28 69 4.8 3.2 0.00 0.00 0.00 93 1006.0
20260502114607 28 84 3.2 4.8 0.00 0.00 0.00 93 1005.9
20260502114453 28 91 4.8 4.8 0.00 0.00 0.00 93 1006.0
20260502114353 28 82 4.8 3.2 0.00 0.00 0.00 93 1006.0
20260502114253 29 70 3.2 4.8 0.00 0.00 0.00 93 1005.9
20260502114153 29 65 4.8 6.4 0.00 0.00 0.00 93 1006.0
20260502114053 29 47 6.4 8.0 0.00 0.00 0.00 93 1006.0
20260502113953 29 55 8.0 4.8 0.00 0.00 0.00 92 1006.0
20260502113853 29 43 4.8 6.4 0.00 0.00 0.00 92 1006.0
20260502113753 29 62 4.8 4.8 0.00 0.00 0.00 92 1006.0
20260502113653 29 54 4.8 6.4 0.00 0.00 0.00 92 1006.0
20260502113553 29 60 6.4 4.8 0.00 0.00 0.00 92 1005.9
20260502113453 29 58 4.8 6.4 0.00 0.00 0.00 92 1005.9
20260502113353 29 73 6.4 6.4 0.00 0.00 0.00 92 1005.9
20260502113301 29 68 6.4 4.8 0.00 0.00 0.00 92 1005.9
20260502113157 29 63 4.8 4.8 0.00 0.00 0.00 92 1005.9
20260502113056 29 59 4.8 6.4 0.00 0.00 0.00 92 1005.9
20260502112953 29 50 6.4 6.4 0.00 0.00 0.00 91 1005.9
20260502112853 29 33 6.4 6.4 0.00 0.00 0.00 91 1005.9
20260502112759 29 45 4.8 3.2 0.00 0.00 0.00 91 1005.9
20260502112653 29 57 3.2 8.0 0.00 0.00 0.00 91 1005.9
20260502112555 29 80 8.0 8.0 0.00 0.00 0.00 91 1005.9
20260502112453 29 39 8.0 9.7 0.00 0.00 0.00 91 1005.9
20260502112353 29 73 9.7 8.0 0.00 0.00 0.00 91 1005.9
20260502112253 29 57 8.0 8.0 0.00 0.00 0.00 91 1005.9
20260502112153 29 72 8.0 8.0 0.00 0.00 0.00 91 1005.9
20260502112053 29 50 8.0 6.4 0.00 0.00 0.00 91 1005.8
20260502111953 29 67 6.4 6.4 0.00 0.00 0.00 91 1005.8
20260502111853 29 85 6.4 8.0 0.00 0.00 0.00 90 1005.8
20260502111753 29 68 6.4 4.8 0.00 0.00 0.00 90 1005.8
20260502111653 29 64 4.8 6.4 0.00 0.00 0.00 90 1005.8
20260502111607 29 62 6.4 8.0 0.00 0.00 0.00 90 1005.8
20260502111453 29 71 8.0 4.8 0.00 0.00 0.00 90 1005.8
20260502111353 29 59 4.8 3.2 0.00 0.00 0.00 90 1005.8
20260502111253 29 67 3.2 4.8 0.00 0.00 0.00 90 1005.8
20260502111153 29 63 4.8 6.4 0.00 0.00 0.00 90 1005.8
20260502111053 30 65 6.4 6.4 0.00 0.00 0.00 90 1005.8
20260502110953 30 68 6.4 9.7 0.00 0.00 0.00 90 1005.7
20260502110858 30 60 9.7 8.0 0.00 0.00 0.00 89 1005.7
20260502110753 30 70 9.7 6.4 0.00 0.00 0.00 89 1005.7
20260502110655 30 57 6.4 8.0 0.00 0.00 0.00 89 1005.7
20260502110555 30 65 8.0 6.4 0.00 0.00 0.00 89 1005.7
20260502110453 30 84 6.4 8.0 0.00 0.00 0.00 89 1005.7
20260502110353 30 60 8.0 8.0 0.00 0.00 0.00 89 1005.6
20260502110253 30 64 8.0 6.4 0.00 0.00 0.00 89 1005.6
20260502110155 30 66 6.4 4.8 0.00 0.00 0.00 89 1005.6
20260502110107 30 61 4.8 8.0 0.00 0.00 0.00 89 1005.6
20260502105953 30 83 8.0 9.7 0.00 0.00 0.00 89 1005.5
20260502105853 30 41 9.7 9.7 0.00 0.00 0.00 89 1005.5
20260502105753 30 54 6.4 6.4 0.00 0.00 0.00 89 1005.5
20260502105653 30 64 6.4 6.4 0.00 0.00 0.00 89 1005.5
20260502105553 30 79 6.4 6.4 0.00 0.00 0.00 89 1005.4
20260502105453 30 54 6.4 9.7 0.00 0.00 0.00 89 1005.4
20260502105353 30 62 9.7 8.0 0.00 0.00 0.00 89 1005.4
20260502105253 30 74 8.0 8.0 0.00 0.00 0.00 89 1005.4
20260502105153 30 62 8.0 9.7 0.00 0.00 0.00 89 1005.4
20260502105053 30 79 9.7 8.0 0.00 0.00 0.00 89 1005.4
20260502104953 30 79 8.0 8.0 0.00 0.00 0.00 89 1005.4
20260502104853 30 48 8.0 11.3 0.00 0.00 0.00 89 1005.4
20260502104753 30 41 9.7 9.7 0.00 0.00 0.00 89 1005.4
20260502104653 30 53 9.7 6.4 0.00 0.00 0.00 89 1005.3
20260502104607 30 60 6.4 8.0 0.00 0.00 0.00 89 1005.3
20260502104453 30 61 8.0 9.7 0.00 0.00 0.00 88 1005.3
20260502104353 30 59 9.7 11.3 0.00 0.00 0.00 88 1005.3
20260502104253 30 49 11.3 11.3 0.00 0.00 0.00 88 1005.3
20260502104153 30 67 11.3 9.7 0.00 0.00 0.00 88 1005.3
20260502104053 30 22 9.7 12.9 0.00 0.00 0.00 88 1005.2
20260502103953 30 42 12.9 12.9 0.00 0.00 0.00 88 1005.2
20260502103853 30 17 12.9 9.7 0.00 0.00 0.00 88 1005.2
20260502103753 30 45 11.3 9.7 0.00 0.00 0.00 87 1005.2
20260502103653 30 53 9.7 11.3 0.00 0.00 0.00 87 1005.2
20260502103553 30 45 11.3 11.3 0.00 0.00 0.00 87 1005.2
20260502103453 30 51 11.3 11.3 0.00 0.00 0.00 87 1005.2
20260502103353 30 55 11.3 14.5 0.00 0.00 0.00 87 1005.2
20260502103253 30 54 14.5 12.9 0.00 0.00 0.00 87 1005.3
20260502103152 30 62 12.9 11.3 0.00 0.00 0.00 86 1005.3
20260502103056 30 71 11.3 9.7 0.00 0.00 0.00 86 1005.3
20260502102953 30 49 9.7 8.0 0.00 0.00 0.00 86 1005.3
20260502102853 30 49 8.0 12.9 0.00 0.00 0.00 86 1005.3
20260502102753 30 72 11.3 11.3 0.00 0.00 0.00 86 1005.3
20260502102652 30 51 11.3 11.3 0.00 0.00 0.00 86 1005.2
20260502102552 30 62 11.3 11.3 0.00 0.00 0.00 85 1005.2
20260502102453 30 51 11.3 12.9 0.00 0.00 0.00 86 1005.2
20260502102353 30 55 12.9 8.0 0.00 0.00 0.00 86 1005.2
20260502102253 30 55 8.0 8.0 0.00 0.00 0.00 87 1005.2
20260502102152 30 55 8.0 9.7 0.00 0.00 0.00 86 1005.2
20260502102054 30 63 9.7 11.3 0.00 0.00 0.00 86 1005.2
20260502101953 30 50 11.3 12.9 0.00 0.00 0.00 86 1005.2
20260502101853 30 30 12.9 9.7 0.00 0.00 0.00 85 1005.2
20260502101753 30 54 12.9 11.3 0.00 0.00 0.00 85 1005.1
20260502101652 30 46 11.3 12.9 0.00 0.00 0.00 85 1005.1
20260502101622 30 58 12.9 16.1 0.00 0.00 0.00 86 1005.1
20260502101453 30 49 16.1 11.3 0.00 0.00 0.00 85 1005.1
20260502101353 30 49 11.3 12.9 0.00 0.00 0.00 86 1005.1
20260502101252 30 55 12.9 12.9 0.00 0.00 0.00 86 1005.1
20260502101154 30 65 12.9 11.3 0.00 0.00 0.00 86 1005.1
20260502101053 30 46 11.3 12.9 0.00 0.00 0.00 86 1005.1
20260502100952 30 37 12.9 11.3 0.00 0.00 0.00 85 1005.1
20260502100853 30 45 11.3 14.5 0.00 0.00 0.00 86 1005.1
20260502100752 30 71 11.3 8.0 0.00 0.00 0.00 86 1005.1
20260502100654 30 73 8.0 8.0 0.00 0.00 0.00 86 1005.1
20260502100552 30 38 8.0 11.3 0.00 0.00 0.00 86 1005.1
20260502100454 30 50 11.3 11.3 0.00 0.00 0.00 85 1005.0
20260502100353 30 36 11.3 8.0 0.00 0.00 0.00 85 1005.0
20260502100252 30 2 8.0 11.3 0.00 0.00 0.00 85 1005.0
20260502100152 30 56 11.3 11.3 0.00 0.00 0.00 85 1005.0
20260502100106 30 61 11.3 14.5 0.00 0.00 0.00 84 1004.9
20260502091452 31 52 9.7 12.9 0.00 0.00 0.00 82 1004.2
20260502091352 31 14 12.9 14.5 0.00 0.00 0.00 82 1004.2
20260502091252 31 21 14.5 12.9 0.00 0.00 0.00 82 1004.2
20260502091156 31 12 12.9 11.3 0.00 0.00 0.00 81 1004.2
20260502091054 31 39 11.3 17.7 0.00 0.00 0.00 81 1004.2
20260502090952 31 51 17.7 14.5 0.00 0.00 0.00 81 1004.2
20260502090854 31 25 14.5 16.1 0.00 0.00 0.00 80 1004.2
20260502090756 31 15 16.1 20.9 0.00 0.00 0.00 80 1004.2
20260502090656 31 47 20.9 12.9 0.00 0.00 0.00 80 1004.2
20260502090552 31 16 12.9 14.5 0.00 0.00 0.00 81 1004.2
20260502090452 31 33 14.5 19.3 0.00 0.00 0.00 81 1004.2
20260502090352 32 58 19.3 19.3 0.00 0.00 0.00 80 1004.2
20260502090252 32 43 19.3 14.5 0.00 0.00 0.00 80 1004.2
20260502090156 32 29 14.5 20.9 0.00 0.00 0.00 80 1004.1
20260502071451 33 131 14.5 19.3 0.00 0.00 0.00 77 1006.0
20260502071351 33 127 19.3 16.1 0.00 0.00 0.00 75 1006.0
20260502071253 33 89 16.1 16.1 0.00 0.00 0.00 73 1006.0
20260502071151 33 92 16.1 14.5 0.00 0.00 0.00 74 1006.0
20260502071051 33 84 14.5 11.3 0.00 0.00 0.00 75 1006.0
20260502070953 32 82 11.3 11.3 0.00 0.00 0.00 78 1006.0
20260502070851 32 41 11.3 16.1 0.00 0.00 0.00 78 1006.0
20260502070751 32 32 12.9 12.9 0.00 0.00 0.00 79 1006.0
20260502070653 32 22 12.9 9.7 0.00 0.00 0.00 79 1006.0
20260502070551 32 8 9.7 6.4 0.00 0.00 0.00 81 1006.1
20260502070453 32 2 6.4 11.3 0.00 0.00 0.00 81 1006.1
20260502070353 32 92 11.3 14.5 0.00 0.00 0.00 80 1006.1
20260502070251 32 31 14.5 12.9 0.00 0.00 0.00 80 1006.1
20260502070154 32 45 12.9 19.3 0.00 0.00 0.00 81 1006.1
20260502065955 32 0 17.7 14.5 0.00 0.00 0.00 79 1006.1
20260502065853 32 10 14.5 16.1 0.00 0.00 0.00 80 1006.1
20260502065751 32 22 17.7 12.9 0.00 0.00 0.00 79 1006.1
20260502065651 32 21 12.9 16.1 0.00 0.00 0.00 80 1006.1
20260502065551 32 16 16.1 16.1 0.00 0.00 0.00 80 1006.1
20260502065451 32 28 16.1 17.7 0.00 0.00 0.00 79 1006.2
20260502065352 32 310 17.7 20.9 0.00 0.00 0.00 78 1006.2
20260502065252 32 9 20.9 16.1 0.00 0.00 0.00 77 1006.2
20260502065151 33 11 16.1 9.7 0.00 0.00 0.00 78 1006.2
20260502065053 32 17 9.7 14.5 0.00 0.00 0.00 79 1006.3
20260502064951 32 40 14.5 16.1 0.00 0.00 0.00 80 1006.3
20260502064851 32 2 16.1 14.5 0.00 0.00 0.00 78 1006.3
20260502064751 32 21 14.5 14.5 0.00 0.00 0.00 80 1006.4
20260502064651 32 4 14.5 16.1 0.00 0.00 0.00 82 1006.4
20260502064605 32 17 16.1 17.7 0.00 0.00 0.00 81 1006.4
20260502064451 32 26 17.7 19.3 0.00 0.00 0.00 81 1006.4
20260502064353 32 26 19.3 19.3 0.00 0.00 0.00 80 1006.5
20260502064251 32 9 19.3 11.3 0.00 0.00 0.00 81 1006.5
20260502064151 32 6 11.3 16.1 0.00 0.00 0.00 83 1006.5
20260502064052 32 42 16.1 14.5 0.00 0.00 0.00 81 1006.5
20260502063953 32 5 14.5 14.5 0.00 0.00 0.00 82 1006.6
20260502063852 32 355 14.5 16.1 0.00 0.00 0.00 82 1006.6
20260502063752 31 25 12.9 17.7 0.00 0.00 0.00 81 1006.6
20260502063651 32 31 17.7 16.1 0.00 0.00 0.00 81 1006.6
20260502063551 32 13 16.1 17.7 0.00 0.00 0.00 81 1006.6
20260502063451 32 16 17.7 16.1 0.00 0.00 0.00 82 1006.6
20260502063358 32 18 16.1 14.5 0.00 0.00 0.00 82 1006.6
20260502063251 32 23 14.5 14.5 0.00 0.00 0.00 83 1006.6
20260502063151 32 25 14.5 12.9 0.00 0.00 0.00 83 1006.6
20260502063104 32 26 12.9 16.1 0.00 0.00 0.00 83 1006.6
20260502062951 32 18 16.1 17.7 0.00 0.00 0.00 82 1006.6
20260502062852 32 256 17.7 9.7 0.00 0.00 0.00 83 1006.6
20260502062751 32 2 17.7 16.1 0.00 0.00 0.00 83 1006.6
20260502062651 32 314 16.1 17.7 0.00 0.00 0.00 84 1006.6
20260502062551 32 355 17.7 16.1 0.00 0.00 0.00 85 1006.6
20260502062451 32 0 16.1 14.5 0.00 0.00 0.00 85 1006.7
20260502062351 32 3 14.5 16.1 0.00 0.00 0.00 85 1006.7
20260502062251 31 256 16.1 16.1 0.00 0.00 0.00 85 1006.7
20260502062151 31 34 16.1 12.9 0.00 0.00 0.00 85 1006.7
20260502062056 31 16 12.9 11.3 0.00 0.00 0.00 88 1006.8
20260502061951 31 0 11.3 11.3 0.00 0.00 0.00 88 1006.8
20260502061851 31 8 11.3 6.4 0.00 0.00 0.00 89 1006.8
20260502061751 31 6 9.7 12.9 0.00 0.00 0.00 90 1006.9
20260502061654 31 0 12.9 8.0 0.00 0.00 0.00 90 1006.9
20260502061558 31 355 8.0 12.9 0.00 0.00 0.00 92 1006.9
20260502061452 31 355 12.9 11.3 0.00 0.00 0.00 89 1006.9
20260502061351 31 313 11.3 9.7 0.00 0.00 0.00 90 1007.0
20260502061252 31 355 9.7 6.4 0.00 0.00 0.00 91 1007.0
20260502061152 31 355 6.4 6.4 0.00 0.00 0.00 94 1007.0
20260502061052 30 8 6.4 6.4 0.00 0.00 0.00 95 1007.1
20260502060951 30 355 6.4 6.4 0.00 0.00 0.00 95 1007.1
20260502060852 30 334 6.4 9.7 0.00 0.00 0.00 96 1007.1
20260502060751 30 0 6.4 4.8 0.00 0.00 0.00 94 1007.1
20260502060654 30 23 4.8 4.8 0.00 0.00 0.00 94 1007.2
20260502060551 30 355 4.8 6.4 0.00 0.00 0.00 95 1007.2
20260502060451 29 9 6.4 4.8 0.00 0.00 0.00 95 1007.2
20260502060351 29 33 4.8 6.4 0.00 0.00 0.00 97 1007.2
20260502060250 29 37 6.4 6.4 0.00 0.00 0.00 96 1007.3
20260502060238 29 31 6.4 8.0 0.00 0.00 0.00 96 1007.3
20260502060101 29 42 8.0 6.4 0.00 0.00 0.00 96 1007.3
20260502055950 29 58 6.4 8.0 0.00 0.00 0.00 98 1007.3
20260502055856 28 63 8.0 9.7 0.00 0.00 0.00 97 1007.3
20260502055753 28 54 9.7 6.4 0.00 0.00 0.00 95 1007.3
20260502055657 28 48 6.4 6.4 0.00 0.00 0.00 97 1007.3
20260502055550 28 54 6.4 8.0 0.00 0.00 0.00 95 1007.3
20260502055455 28 124 8.0 8.0 0.00 0.00 0.00 94 1007.3
20260502055404 29 94 8.0 12.9 0.00 0.00 0.00 95 1007.3
20260502055250 29 94 12.9 14.5 0.00 0.00 0.00 96 1007.3
20260502055153 29 106 14.5 16.1 0.00 0.00 0.00 95 1007.3
20260502055050 30 119 16.1 11.3 0.00 0.00 0.00 93 1007.3
20260502054950 30 130 11.3 11.3 0.00 0.00 0.00 91 1007.3
20260502054850 30 116 11.3 14.5 0.00 0.00 0.00 90 1007.3
20260502054750 31 88 9.7 9.7 0.00 0.00 0.00 87 1007.3
20260502054652 31 106 9.7 9.7 0.00 0.00 0.00 84 1007.3
20260502054627 31 63 9.7 8.0 0.00 0.00 0.00 82 1007.2
20260502054450 31 48 8.0 11.3 0.00 0.00 0.00 82 1007.2
20260502054412 32 32 11.3 11.3 0.00 0.00 0.00 80 1007.2
20260502054252 32 62 11.3 8.0 0.00 0.00 0.00 79 1007.2
20260502054153 32 47 8.0 9.7 0.00 0.00 0.00 79 1007.2
20260502054050 32 54 9.7 12.9 0.00 0.00 0.00 79 1007.2
20260502053953 32 18 12.9 14.5 0.00 0.00 0.00 79 1007.2
20260502053854 32 32 14.5 14.5 0.00 0.00 0.00 79 1007.2
20260502053752 32 18 17.7 17.7 0.00 0.00 0.00 78 1007.2
20260502053658 32 11 17.7 11.3 0.00 0.00 0.00 78 1007.2
20260502053550 32 6 11.3 16.1 0.00 0.00 0.00 78 1007.2
20260502053453 32 18 16.1 16.1 0.00 0.00 0.00 77 1007.2
20260502053350 32 22 16.1 16.1 0.00 0.00 0.00 77 1007.3
20260502053250 32 21 16.1 14.5 0.00 0.00 0.00 77 1007.3
20260502053150 32 22 14.5 14.5 0.00 0.00 0.00 77 1007.3
20260502053104 32 20 14.5 12.9 0.00 0.00 0.00 78 1007.3
20260502052950 32 58 12.9 12.9 0.00 0.00 0.00 78 1007.3
20260502052850 32 355 12.9 12.9 0.00 0.00 0.00 76 1007.3
20260502052750 32 22 16.1 19.3 0.00 0.00 0.00 76 1007.3
20260502052650 32 17 19.3 12.9 0.00 0.00 0.00 76 1007.4
20260502052550 33 11 12.9 16.1 0.00 0.00 0.00 76 1007.4
20260502052450 33 18 16.1 16.1 0.00 0.00 0.00 76 1007.4
20260502052350 33 33 16.1 8.0 0.00 0.00 0.00 76 1007.4
20260502052250 33 53 8.0 11.3 0.00 0.00 0.00 79 1007.5
20260502052150 32 355 11.3 12.9 0.00 0.00 0.00 79 1007.5
20260502052050 32 9 12.9 11.3 0.00 0.00 0.00 78 1007.5
20260502051956 32 355 11.3 11.3 0.00 0.00 0.00 79 1007.5
20260502051850 32 355 11.3 14.5 0.00 0.00 0.00 77 1007.5
20260502051750 32 351 12.9 12.9 0.00 0.00 0.00 77 1007.5
20260502051650 32 267 12.9 16.1 0.00 0.00 0.00 78 1007.5
20260502051604 32 0 16.1 12.9 0.00 0.00 0.00 77 1007.5
20260502051456 33 32 12.9 11.3 0.00 0.00 0.00 77 1007.5
20260502051350 33 0 11.3 9.7 0.00 0.00 0.00 78 1007.6
20260502051250 33 10 9.7 12.9 0.00 0.00 0.00 79 1007.6
20260502051150 33 355 12.9 12.9 0.00 0.00 0.00 79 1007.6
20260502051050 32 16 12.9 12.9 0.00 0.00 0.00 79 1007.6
20260502050950 32 0 12.9 17.7 0.00 0.00 0.00 78 1007.6
20260502050850 33 355 17.7 12.9 0.00 0.00 0.00 77 1007.6
20260502050750 33 5 12.9 12.9 0.00 0.00 0.00 77 1007.6
20260502050650 33 355 12.9 12.9 0.00 0.00 0.00 77 1007.6
20260502050550 33 355 12.9 12.9 0.00 0.00 0.00 79 1007.7
20260502050453 33 158 12.9 11.3 0.00 0.00 0.00 78 1007.7
20260502050350 32 355 11.3 14.5 0.00 0.00 0.00 79 1007.7
20260502050255 32 355 14.5 12.9 0.00 0.00 0.00 78 1007.7
20260502050150 32 355 12.9 17.7 0.00 0.00 0.00 77 1007.7
20260502050052 32 355 17.7 14.5 0.00 0.00 0.00 76 1007.7
20260502045950 32 0 14.5 16.1 0.00 0.00 0.00 78 1007.8
20260502045850 32 18 16.1 12.9 0.00 0.00 0.00 77 1007.8
20260502045752 32 12 12.9 12.9 0.00 0.00 0.00 78 1007.8
20260502045650 32 4 12.9 12.9 0.00 0.00 0.00 78 1007.8
20260502045550 32 213 12.9 14.5 0.00 0.00 0.00 79 1007.8
20260502045450 32 6 14.5 16.1 0.00 0.00 0.00 77 1007.8
20260502045352 32 219 16.1 12.9 0.00 0.00 0.00 79 1007.8
20260502045250 32 36 12.9 12.9 0.00 0.00 0.00 80 1007.9
20260502045150 32 355 12.9 11.3 0.00 0.00 0.00 79 1007.9
20260502045054 32 135 11.3 14.5 0.00 0.00 0.00 79 1007.9
20260502044950 32 7 14.5 12.9 0.00 0.00 0.00 79 1007.9
20260502044852 32 343 12.9 12.9 0.00 0.00 0.00 80 1007.9
20260502044750 32 5 14.5 14.5 0.00 0.00 0.00 80 1007.9
20260502044654 32 25 14.5 14.5 0.00 0.00 0.00 79 1007.9
20260502044559 32 28 14.5 12.9 0.00 0.00 0.00 80 1007.9
20260502044452 32 168 12.9 14.5 0.00 0.00 0.00 80 1007.9
20260502044350 32 307 14.5 14.5 0.00 0.00 0.00 79 1007.9
20260502044250 32 2 14.5 12.9 0.00 0.00 0.00 79 1007.9
20260502044150 32 355 12.9 9.7 0.00 0.00 0.00 79 1007.9
20260502044050 32 354 9.7 0.0 0.00 0.00 0.00 80 1007.9
20260502043954 32 355 0.0 0.0 0.00 0.00 0.00 79 1008.0
20260502043806 32 355 9.7 9.7 0.00 0.00 0.00 78 1008.0
20260502043700 32 355 9.7 9.7 0.00 0.00 0.00 79 1008.0
20260502043600 32 12 12.9 11.3 0.00 0.00 0.00 80 1008.0
20260502043402 32 17 11.3 12.9 0.00 0.00 0.00 80 1008.0
20260502043304 32 355 12.9 14.5 0.00 0.00 0.00 79 1008.0
20260502043200 32 354 14.5 9.7 0.00 0.00 0.00 78 1008.1
20260502043106 32 355 9.7 14.5 0.00 0.00 0.00 77 1008.1
20260502043000 33 355 14.5 12.9 0.00 0.00 0.00 76 1008.1
20260502042900 33 0 12.9 12.9 0.00 0.00 0.00 76 1008.1
20260502042800 33 355 12.9 9.7 0.00 0.00 0.00 76 1008.1
20260502042700 33 355 9.7 9.7 0.00 0.00 0.00 77 1008.1
20260502042600 33 355 9.7 9.7 0.00 0.00 0.00 77 1008.1
20260502042500 33 355 9.7 14.5 0.00 0.00 0.00 76 1008.2
20260502042408 33 355 14.5 9.7 0.00 0.00 0.00 76 1008.2
20260502042300 33 355 9.7 9.7 0.00 0.00 0.00 76 1008.2
20260502042200 32 355 9.7 8.0 0.00 0.00 0.00 78 1008.2
20260502042100 32 355 8.0 9.7 0.00 0.00 0.00 77 1008.2
20260502042000 32 355 9.7 8.0 0.00 0.00 0.00 78 1008.3
20260502041902 32 335 8.0 11.3 0.00 0.00 0.00 78 1008.3
20260502041801 32 351 11.3 11.3 0.00 0.00 0.00 79 1008.3
20260502041700 32 34 11.3 8.0 0.00 0.00 0.00 78 1008.3
20260502041601 32 355 11.3 3.2 0.00 0.00 0.00 78 1008.3
20260502041500 32 306 3.2 8.0 0.00 0.00 0.00 79 1008.3
20260502041402 32 48 8.0 12.9 0.00 0.00 0.00 78 1008.4
20260502041302 32 6 12.9 8.0 0.00 0.00 0.00 77 1008.4
20260502041200 32 13 8.0 9.7 0.00 0.00 0.00 78 1008.4
20260502041103 32 15 9.7 11.3 0.00 0.00 0.00 78 1008.4
20260502041005 32 8 11.3 4.8 0.00 0.00 0.00 78 1008.4
20260502040859 32 355 4.8 4.8 0.00 0.00 0.00 79 1008.4
20260502040804 32 355 4.8 6.4 0.00 0.00 0.00 80 1008.4
20260502040702 32 345 6.4 1.6 0.00 0.00 0.00 80 1008.4
20260502040602 32 355 11.3 9.7 0.00 0.00 0.00 79 1008.4
20260502040500 32 350 9.7 8.0 0.00 0.00 0.00 79 1008.4
20260502040405 32 355 8.0 3.2 0.00 0.00 0.00 79 1008.4
20260502040300 32 7 3.2 9.7 0.00 0.00 0.00 79 1008.4
20260502040205 32 0 9.7 8.0 0.00 0.00 0.00 77 1008.5
20260502040105 32 0 8.0 9.7 0.00 0.00 0.00 77 1008.5
20260502040000 32 18 9.7 9.7 0.00 0.00 0.00 78 1008.5
20260502035901 33 43 9.7 8.0 0.00 0.00 0.00 76 1008.4
20260502035759 33 52 8.0 3.2 0.00 0.00 0.00 75 1008.4
20260502035701 33 52 3.2 3.2 0.00 0.00 0.00 71 1008.4
20260502035559 33 66 1.6 1.6 0.00 0.00 0.00 71 1008.4
20260502035459 33 14 1.6 1.6 0.00 0.00 0.00 72 1008.5
20260502035359 33 355 1.6 1.6 0.00 0.00 0.00 73 1008.5
20260502035259 32 355 1.6 0.0 0.00 0.00 0.00 74 1008.5
20260502035159 32 328 0.0 0.0 0.00 0.00 0.00 74 1008.5
20260502035106 32 333 0.0 0.0 0.00 0.00 0.00 75 1008.5
20260502034959 32 355 0.0 1.6 0.00 0.00 0.00 75 1008.5
20260502034905 32 355 1.6 0.0 0.00 0.00 0.00 74 1008.6
20260502034806 32 355 0.0 1.6 0.00 0.00 0.00 74 1008.6
20260502034659 32 355 1.6 6.4 0.00 0.00 0.00 74 1008.6
20260502034630 32 355 1.6 0.0 0.00 0.00 0.00 75 1008.6
20260502034359 32 355 0.0 1.6 0.00 0.00 0.00 73 1008.6
20260502034259 32 355 1.6 3.2 0.00 0.00 0.00 74 1008.6
20260502034236 32 355 3.2 6.4 0.00 0.00 0.00 73 1008.7
20260502034128 32 355 6.4 4.8 0.00 0.00 0.00 72 1008.7
20260502034027 33 41 4.8 6.4 0.00 0.00 0.00 72 1008.7
20260502033909 33 128 6.4 6.4 0.00 0.00 0.00 71 1008.7
20260502033815 33 137 6.4 6.4 0.00 0.00 0.00 72 1008.7
20260502033703 33 130 6.4 6.4 0.00 0.00 0.00 72 1008.7
20260502033559 33 91 4.8 3.2 0.00 0.00 0.00 74 1008.7
20260502033459 32 62 3.2 3.2 0.00 0.00 0.00 73 1008.8
20260502033359 32 25 3.2 6.4 0.00 0.00 0.00 73 1008.8
20260502033301 32 35 6.4 4.8 0.00 0.00 0.00 73 1008.8
20260502033159 32 51 4.8 8.0 0.00 0.00 0.00 73 1008.8
20260502033101 32 166 8.0 9.7 0.00 0.00 0.00 73 1008.8
20260502032959 32 149 9.7 6.4 0.00 0.00 0.00 72 1008.8
20260502032859 32 152 6.4 9.7 0.00 0.00 0.00 72 1008.8
20260502032806 32 80 9.7 6.4 0.00 0.00 0.00 73 1008.9
20260502032706 32 72 6.4 1.6 0.00 0.00 0.00 73 1008.9
20260502032601 32 68 9.7 8.0 0.00 0.00 0.00 73 1008.9
20260502032505 32 95 8.0 1.6 0.00 0.00 0.00 73 1008.9
20260502032359 32 81 1.6 4.8 0.00 0.00 0.00 75 1008.9
20260502032259 32 55 4.8 8.0 0.00 0.00 0.00 75 1008.9
20260502032205 32 76 8.0 9.7 0.00 0.00 0.00 76 1008.9
20260502032059 32 108 9.7 6.4 0.00 0.00 0.00 75 1008.9
20260502031959 32 131 6.4 4.8 0.00 0.00 0.00 75 1008.9
20260502031859 32 142 4.8 1.6 0.00 0.00 0.00 76 1008.9
20260502031759 32 135 1.6 1.6 0.00 0.00 0.00 76 1009.0
20260502031659 32 80 1.6 6.4 0.00 0.00 0.00 76 1009.0
20260502031601 32 86 1.6 0.0 0.00 0.00 0.00 77 1009.0
20260502031501 32 165 0.0 0.0 0.00 0.00 0.00 77 1009.0
20260502031359 32 230 0.0 1.6 0.00 0.00 0.00 77 1009.0
20260502031301 32 173 1.6 1.6 0.00 0.00 0.00 78 1009.0
20260502031201 32 184 1.6 0.0 0.00 0.00 0.00 78 1009.0
20260502031101 32 196 0.0 4.8 0.00 0.00 0.00 78 1009.0
20260502030959 32 150 4.8 3.2 0.00 0.00 0.00 78 1009.0
20260502030903 32 152 3.2 4.8 0.00 0.00 0.00 79 1009.0
20260502030759 31 151 4.8 6.4 0.00 0.00 0.00 78 1009.0
20260502030659 31 161 6.4 3.2 0.00 0.00 0.00 78 1009.0
20260502030559 31 171 8.0 9.7 0.00 0.00 0.00 77 1009.0
20260502030511 32 171 9.7 11.3 0.00 0.00 0.00 77 1009.1
20260502030421 32 171 11.3 8.0 0.00 0.00 0.00 77 1009.1
20260502030259 31 156 8.0 9.7 0.00 0.00 0.00 79 1009.1
20260502030209 31 140 9.7 4.8 0.00 0.00 0.00 77 1009.1
20260502030116 32 154 4.8 6.4 0.00 0.00 0.00 77 1009.1
20260502030013 32 145 6.4 3.2 0.00 0.00 0.00 77 1009.1
20260502025859 32 169 3.2 1.6 0.00 0.00 0.00 78 1009.1
20260502025759 32 176 1.6 6.4 0.00 0.00 0.00 78 1009.1
20260502025704 32 179 6.4 4.8 0.00 0.00 0.00 78 1009.1
20260502025559 32 163 9.7 4.8 0.00 0.00 0.00 77 1009.1
20260502025506 32 116 4.8 1.6 0.00 0.00 0.00 79 1009.1
20260502025404 31 198 1.6 3.2 0.00 0.00 0.00 79 1009.1
20260502025306 31 231 3.2 3.2 0.00 0.00 0.00 80 1009.1
20260502025159 31 183 3.2 3.2 0.00 0.00 0.00 79 1009.1
20260502025059 31 226 3.2 3.2 0.00 0.00 0.00 79 1009.1
20260502025006 31 205 3.2 4.8 0.00 0.00 0.00 79 1009.1
20260502024859 31 180 4.8 3.2 0.00 0.00 0.00 79 1009.1
20260502024806 31 197 3.2 4.8 0.00 0.00 0.00 80 1009.1
20260502024659 31 164 4.8 6.4 0.00 0.00 0.00 80 1009.1
20260502024609 31 178 3.2 4.8 0.00 0.00 0.00 80 1009.1
20260502024459 31 205 4.8 3.2 0.00 0.00 0.00 81 1009.1
20260502024359 31 127 3.2 3.2 0.00 0.00 0.00 81 1009.1
20260502024259 31 94 3.2 4.8 0.00 0.00 0.00 81 1009.1
20260502024209 31 132 4.8 6.4 0.00 0.00 0.00 80 1009.1
20260502024106 31 92 6.4 9.7 0.00 0.00 0.00 81 1009.1
20260502023959 31 109 9.7 3.2 0.00 0.00 0.00 81 1009.1
20260502023859 31 119 3.2 8.0 0.00 0.00 0.00 81 1009.1
20260502023759 31 117 8.0 8.0 0.00 0.00 0.00 80 1009.1
20260502023710 31 131 8.0 4.8 0.00 0.00 0.00 80 1009.2
20260502023559 31 146 8.0 6.4 0.00 0.00 0.00 81 1009.2
20260502023521 31 169 6.4 6.4 0.00 0.00 0.00 82 1009.2
20260502023424 31 198 6.4 6.4 0.00 0.00 0.00 80 1009.2
20260502023353 31 173 4.8 4.8 0.00 0.00 0.00 82 1009.2
20260502023139 31 181 4.8 6.4 0.00 0.00 0.00 81 1009.2
20260502023002 31 143 6.4 6.4 0.00 0.00 0.00 81 1009.2
20260502022859 31 146 6.4 6.4 0.00 0.00 0.00 81 1009.2
20260502022803 31 141 6.4 6.4 0.00 0.00 0.00 82 1009.2
20260502022700 31 110 6.4 4.8 0.00 0.00 0.00 82 1009.2
20260502022559 31 125 8.0 8.0 0.00 0.00 0.00 80 1009.2
20260502022459 31 129 8.0 3.2 0.00 0.00 0.00 80 1009.2
20260502022359 31 124 3.2 1.6 0.00 0.00 0.00 82 1009.2
20260502022300 31 124 1.6 8.0 0.00 0.00 0.00 82 1009.2
20260502022159 31 119 8.0 3.2 0.00 0.00 0.00 83 1009.2
20260502022100 31 108 3.2 3.2 0.00 0.00 0.00 83 1009.2
20260502021959 31 134 3.2 6.4 0.00 0.00 0.00 82 1009.2
20260502021859 31 149 6.4 1.6 0.00 0.00 0.00 82 1009.2
20260502021759 31 173 1.6 8.0 0.00 0.00 0.00 82 1009.2
20260502021701 31 182 8.0 6.4 0.00 0.00 0.00 81 1009.2
20260502021604 31 164 9.7 6.4 0.00 0.00 0.00 82 1009.2
20260502021459 31 159 6.4 3.2 0.00 0.00 0.00 82 1009.2
20260502021400 31 149 3.2 3.2 0.00 0.00 0.00 82 1009.2
20260502021301 31 132 3.2 3.2 0.00 0.00 0.00 82 1009.2
20260502021201 31 131 3.2 4.8 0.00 0.00 0.00 81 1009.2
20260502021101 31 148 4.8 6.4 0.00 0.00 0.00 81 1009.2
20260502020959 31 155 6.4 8.0 0.00 0.00 0.00 82 1009.3
20260502020903 31 149 8.0 6.4 0.00 0.00 0.00 82 1009.3
20260502020631 31 162 8.0 6.4 0.00 0.00 0.00 83 1009.2
20260502020104 31 138 6.4 6.4 0.00 0.00 0.00 84 1009.2
20260502020001 31 83 6.4 8.0 0.00 0.00 0.00 84 1009.2
20260502015812 30 133 3.2 6.4 0.00 0.00 0.00 84 1009.2
20260502015659 31 119 6.4 3.2 0.00 0.00 0.00 83 1009.2
20260502015559 31 137 3.2 3.2 0.00 0.00 0.00 86 1009.2
20260502015518 31 120 3.2 3.2 0.00 0.00 0.00 86 1009.1
20260502015059 30 119 3.2 1.6 0.00 0.00 0.00 87 1009.1
20260502015050 30 121 1.6 0.0 0.00 0.00 0.00 87 1009.1
20260502014957 30 306 1.6 4.8 0.00 0.00 0.00 90 1009.1
20260502014327 29 262 4.8 1.6 0.00 0.00 0.00 91 1009.1
20260502013921 29 220 1.6 3.2 0.00 0.00 0.00 92 1009.1
20260502013617 29 239 1.6 4.8 0.00 0.00 0.00 92 1009.1
20260502013533 29 221 4.8 4.8 0.00 0.00 0.00 91 1009.1
20260502013358 29 226 4.8 1.6 0.00 0.00 0.00 92 1009.1
20260502013315 29 226 1.6 1.6 0.00 0.00 0.00 92 1009.1
20260502013158 29 170 1.6 3.2 0.00 0.00 0.00 92 1009.1
20260502013135 29 168 3.2 1.6 0.00 0.00 0.00 92 1009.1
20260502012723 28 160 3.2 3.2 0.00 0.00 0.00 93 1009.2
20260502012644 28 178 1.6 3.2 0.00 0.00 0.00 93 1009.2
20260502012331 28 188 4.8 1.6 0.00 0.00 0.00 93 1009.2
20260502012259 28 206 1.6 1.6 0.00 0.00 0.00 94 1009.2
20260502012102 28 190 1.6 1.6 0.00 0.00 0.00 94 1009.2
20260502012001 28 195 1.6 3.2 0.00 0.00 0.00 94 1009.2
20260502011936 28 147 3.2 0.0 0.00 0.00 0.00 94 1009.2
20260502011758 28 139 0.0 0.0 0.00 0.00 0.00 94 1009.2
20260502010801 27 198 1.6 0.0 0.00 0.00 0.00 97 1009.1
20260502010250 27 224 3.2 1.6 0.00 0.00 0.00 99 1009.0